Location: Dayton
(39.7590°N, 84.1920°W)
Time: 01:26:49
(UTC-04:00)

Daily predictions for brighter satellites

Satellite Brightness Start Highest point End
(mag) Time Altitude Azimuth Time Altitude Azimuth Time Altitude Azimuth
ERBS 3.5 00:05:21 38° WNW 00:06:03 44° NW 00:09:24 10° NNE
Cosmos 1980 3.9 00:02:18 10° NNW 00:07:52 61° WSW 00:09:10 48° SSW
ATLAS 2AS CENTAUR R/B 3.0 00:05:37 14° SW 00:12:17 81° NW 00:20:24 10° NNE
Cosmos 468 4.4 00:12:17 10° NNW 00:17:39 81° WSW 00:18:26 65° S
Cosmos 2237 Rocket 2.6 00:14:54 10° NNW 00:20:25 52° WSW 00:21:31 45° SW
Cosmos 44 Rocket 3.8 00:22:33 47° E 00:22:33 47° E 00:26:57 10° NE
Terra 3.0 00:22:18 30° WSW 00:23:13 32° W 00:27:28 10° NNW
CZ-4C R/B 4.5 00:17:38 10° NNW 00:23:17 26° NE 00:29:23 10° E
COS B Rocket 3.6 00:21:15 10° N 00:24:36 65° NNE 00:24:36 65° NNE
Cosmos 2181 Rocket 4.0 00:21:05 10° N 00:27:30 84° W 00:29:08 54° S
ATLAS 3B R/B 2.6 00:22:24 10° NNW 00:29:26 83° NE 00:31:14 52° SE
Lacrosse 4 Rocket 1.6 00:25:28 10° NNW 00:29:44 71° NE 00:29:44 71° NE
Meteor 2-3 Rocket 3.9 00:33:21 54° ESE 00:33:49 56° E 00:39:23 10° NNE
Cosmos 2184 Rocket 4.1 00:35:13 53° SE 00:36:08 59° E 00:42:12 10° NNE
Cosmos 1626 4.4 00:35:44 17° W 00:36:31 18° WNW 00:39:09 10° NNW
USA 238 DEB 4.4 00:32:07 10° NNW 00:38:56 49° NE 00:42:03 31° ESE
USA 238 4.4 00:32:13 10° NNW 00:39:02 49° NE 00:42:10 30° ESE
Cosmos 1900 4.3 00:34:56 10° NNW 00:39:47 74° WSW 00:39:47 74° WSW
In-Cosmos 22 Rocket 4.1 00:42:04 68° SE 00:42:37 74° E 00:48:22 10° NNE
Cosmos 2251 Rocket 4.2 00:40:09 10° N 00:45:14 43° ENE 00:45:53 41° E
NOSS 2-3 (E) 3.8 00:46:41 78° WSW 00:47:00 85° NW 00:52:36 10° NNE
H-2A R/B 4.0 00:48:41 17° WSW 00:50:12 19° W 00:53:55 10° NW
Landsat 5 4.5 00:51:59 41° ENE 00:51:59 41° ENE 00:56:04 10° N
COSMOS 2455 2.8 00:46:49 10° NW 00:52:46 63° WSW 00:53:21 60° SW
Cosmos 1869 Rocket 4.4 00:56:24 43° W 00:56:28 43° WNW 01:00:46 10° N
Cosmos 1733 Rocket 3.9 00:58:01 42° ENE 00:58:01 42° ENE 01:01:27 10° NNE
Cosmos 2227 Rocket 4.2 00:54:00 10° WSW 00:58:29 24° NW 01:03:01 10° N
H-2A R/B 3.1 00:56:06 10° NNE 00:59:30 54° NE 00:59:30 54° NE
Cosmos 2263 Rocket 4.0 01:02:46 17° E 01:02:46 17° E 01:05:43 10° ENE
GEOS 3 Rocket 3.6 01:03:02 65° E 01:03:38 72° NE 01:08:49 10° NNW
Cosmos 389 Rocket 4.3 01:01:49 10° NNW 01:03:53 29° NW 01:03:53 29° NW
ALOS 2 2.9 01:09:14 65° N 01:09:14 65° N 01:13:01 10° NNW
SeaSat 1 2.6 01:09:19 61° W 01:09:19 61° W 01:13:54 10° NNW
CZ-4B R/B 3.2 01:10:44 32° N 01:10:44 32° N 01:12:42 10° N
Cosmos 1782 4.2 01:06:15 10° N 01:09:01 33° NE 01:09:01 33° NE
Cosmos 2333 Rocket 4.2 01:09:22 10° WNW 01:12:41 16° W 01:13:18 16° WSW
SL-16 R/B 2.8 01:08:30 10° NW 01:13:50 42° WSW 01:13:53 42° WSW
Cosmos 1340 Rocket 3.9 01:16:02 43° NNE 01:16:02 43° NNE 01:18:45 10° N
Cosmos 2227 4.0 01:15:41 79° SW 01:16:03 87° WNW 01:21:46 10° NNE
Meteor 2-10 Rocket 3.6 01:10:39 10° N 01:16:18 81° E 01:16:40 76° SE
Helios 1A Rocket 3.9 01:13:53 10° NNE 01:16:52 42° NE 01:16:52 42° NE
Cosmos 44 3.5 01:24:34 74° E 01:24:34 74° E 01:29:42 10° NE
ASTEX 1 3.4 01:19:23 10° N 01:24:03 72° WNW 01:24:03 72° WNW
Cosmos 2297 Rocket 4.3 01:21:26 10° W 01:25:37 21° NW 01:29:50 10° N
CZ-2C R/B 3.0 01:22:47 10° NNE 01:27:31 47° E 01:27:31 47° E
NOSS 3-4 (A) 3.9 01:34:20 47° ESE 01:34:20 47° ESE 01:40:31 10° NE
NOSS 3-4 (C) 3.9 01:34:27 47° ESE 01:34:27 47° ESE 01:40:35 10° NE
Cosmos 1943 3.8 01:31:27 10° NNW 01:36:58 48° ENE 01:38:09 41° E
Meteor 1-27 Rocket 4.0 01:32:07 10° N 01:37:53 59° ENE 01:38:31 55° ESE
Nadezhda 3 Rocket 3.8 01:35:48 10° N 01:42:03 89° W 01:42:49 71° S
Cosmos 1674 Rocket 4.2 01:42:52 10° NNW 01:46:25 52° NW 01:46:25 52° NW
Cosmos 1603 3.8 01:42:15 10° NNW 01:47:42 59° WSW 01:47:42 59° WSW
Cosmos 921 Rocket 3.7 01:50:11 50° N 01:50:11 50° N 01:53:27 10° NNE
Cosmos 1606 4.0 01:45:32 10° N 01:48:09 40° NNE 01:48:09 40° NNE
Meteor 2-6 Rocket 4.2 01:47:07 10° NNW 01:52:57 74° W 01:53:21 71° SW
Cosmos 1862 4.4 01:54:08 43° NNE 01:54:08 43° NNE 01:56:59 10° NNE
Cosmos 1607 3.7 01:48:40 10° NNW 01:54:50 83° WSW 01:55:24 74° S
Cosmos 1975 Rocket 3.8 01:53:43 10° N 01:57:28 46° NE 01:57:28 46° NE
CZ-3 Stage 3 4.2 01:39:10 10° W 02:01:24 44° SSW 02:01:24 44° SSW
Cosmos 1908 Rocket 4.1 02:04:29 55° NNW 02:04:29 55° NNW 02:08:02 10° N
Cosmos 2154 Rocket 4.4 02:08:37 45° WSW 02:09:44 50° WNW 02:15:50 10° N
CZ-4C R/B 2.8 02:05:28 10° NW 02:12:40 86° WSW 02:15:06 49° SSE
Cosmos 1408 3.9 02:17:43 40° N 02:17:43 40° N 02:20:16 10° N
Cosmos 1295 Rocket 4.4 02:15:41 65° SSW 02:16:39 80° W 02:23:02 10° N
ATLAS 3B R/B 4.3 02:15:06 10° WNW 02:18:29 16° W 02:18:29 16° W
Cosmos 909 Rocket 4.3 02:24:06 50° SE 02:25:04 55° ESE 02:31:59 10° NE
Cosmos 1825 3.5 02:29:16 37° NNW 02:29:16 37° NNW 02:31:52 10° N
MOS 1-B Rocket 4.4 02:28:35 41° W 02:28:37 41° W 02:33:53 10° NNW
Okean 3 4.2 02:25:19 10° NNW 02:28:43 49° NW 02:28:43 49° NW
USA 238 DEB 4.5 02:23:28 10° NW 02:29:28 34° WSW 02:29:28 34° WSW
USA 238 4.5 02:23:34 10° NW 02:29:35 35° WSW 02:29:35 35° WSW
Cosmos 2151 Rocket 4.2 02:33:02 49° E 02:33:02 49° E 02:37:08 10° NNE
CZ-2C R/B 3.4 02:37:41 57° WSW 02:38:01 59° W 02:43:36 10° NNW
Iridium 4 Rocket 3.8 02:38:01 10° N 02:42:40 52° E 02:43:23 48° ESE
Cosmos 1844 Rocket 4.0 02:41:38 25° ESE 02:42:41 27° ESE 02:47:20 10° NE
Cosmos 2263 Rocket 2.4 02:44:27 53° WSW 02:45:24 61° WNW 02:51:03 10° NNE
Cosmos 1624 Rocket 3.8 02:46:45 75° SSE 02:47:08 82° ESE 02:52:24 10° NNE
Cosmos 1867 3.4 02:42:19 10° NW 02:47:49 80° WSW 02:48:17 72° S
USA 234 3.9 02:41:46 10° ESE 02:48:04 53° NE 02:54:24 10° NW
Cosmos 1184 Rocket 4.4 02:50:42 34° N 02:50:42 34° N 02:52:47 10° N
CENTAUR R/B 4.1 02:47:32 10° NNW 02:54:54 44° NE 03:02:41 10° ESE
SL-8 Rocket 4.5 02:55:08 41° WSW 02:56:29 46° WNW 03:02:33 10° N
Cosmos 1242 Rocket 3.6 02:57:25 10° N 02:59:48 41° NNW 02:59:48 41° NNW
IRS-P3 4.5 02:56:03 10° NNE 03:01:19 56° E 03:02:28 47° SE
Meteor 2-19 Rocket 4.4 03:00:49 54° S 03:02:20 88° W 03:08:33 10° N
NOSS 3-2 (C) 4.0 02:56:16 10° NW 03:03:44 62° WSW 03:06:35 41° S
GP-B 4.2 03:00:03 10° NNE 03:04:09 36° E 03:05:08 32° ESE
Cosmos 1339 Rocket 4.3 02:58:55 10° N 03:05:01 82° W 03:06:36 52° S
Cosmos 2218 Rocket 4.5 03:04:59 40° WSW 03:06:24 47° WNW 03:12:30 10° N
Cosmos 2278 Rocket 4.0 03:04:52 17° SE 03:07:02 21° E 03:11:06 10° NE
COSMOS 2406 3.5 03:01:38 10° NNW 03:07:25 66° ENE 03:10:25 29° SE
CZ-2C R/B 4.3 03:03:58 10° NNW 03:07:44 20° WNW 03:09:02 19° W
Resurs 1-4 Rocket 4.5 03:05:42 10° ENE 03:08:13 13° E 03:10:44 10° ESE
Cosmos 1452 Rocket 4.0 03:07:41 42° SE 03:08:46 49° ESE 03:13:49 10° NNE
RESURS DK-1 3.2 03:11:02 39° WNW 03:11:05 39° WNW 03:15:01 10° N
Meteor 1-25 Rocket 4.2 03:12:25 53° S 03:13:52 85° E 03:19:41 10° N
Meteor 2-8 Rocket 4.5 03:09:40 10° NNW 03:15:40 62° W 03:17:05 48° SW
CBERS-1 4.3 03:15:13 10° NNE 03:20:18 59° E 03:21:44 43° SSE
ADEOS 4.4 03:18:59 10° NNE 03:23:58 43° E 03:25:57 30° SSE
Landsat 4 4.1 03:28:29 52° WNW 03:28:29 52° WNW 03:31:42 10° NNW
Cosmos 967 Rocket 4.5 03:26:07 44° SSW 03:28:24 89° NW 03:34:55 10° NNE
Cosmos 1535 Rocket 4.5 03:29:01 38° S 03:31:34 79° E 03:37:51 10° N
NOSS 2-2 (D) 4.2 03:32:27 38° SE 03:32:59 40° ESE 03:37:15 10° NE
Cosmos 1300 Rocket 3.4 03:34:50 66° SSW 03:35:25 82° W 03:39:48 10° N
Cosmos 1190 Rocket 4.1 03:30:57 10° NNW 03:36:04 56° WSW 03:36:56 49° SW
USA 161 3.1 03:42:28 28° E 03:42:59 30° ENE 03:45:37 10° N
BREEZE-M TANK 1.9 03:41:13 10° WNW 03:44:25 63° ENE 03:46:54 10° ESE
NOSS 2-2 (C) 3.7 03:46:30 47° SSE 03:47:20 58° ESE 03:51:52 10° NE
NPP 3.8 03:43:57 10° N 03:49:16 63° WNW 03:51:12 39° SW
Cosmos 407 Rocket 3.7 03:45:46 10° NNW 03:50:46 51° WSW 03:52:00 41° SW
SL-24 DEB 4.5 03:48:02 10° N 03:52:34 53° W 03:53:41 42° SW
Cosmos 1536 3.4 03:54:17 32° SSE 03:55:51 52° E 03:59:48 10° NNE
Spot 4 Rocket 4.0 03:53:34 10° NNE 03:58:44 79° ESE 04:01:12 32° S
Cosmos 676 Rocket 4.0 03:54:54 10° NNW 03:59:59 57° WSW 04:01:58 35° SSW
CZ-4C R/B 4.3 03:56:00 10° WNW 04:00:13 17° WSW 04:00:13 17° WSW
ERS-2 2.6 03:58:27 10° N 04:02:01 45° WNW 04:02:32 42° W
SL-27 R/B 3.5 04:00:51 10° NW 04:03:39 32° W 04:03:39 32° W
Gbstr 26 Del rocket 3.0 04:04:26 37° W 04:05:46 60° NW 04:09:29 10° NE
CZ-2D R/B 2.9 04:02:20 10° NNE 04:07:36 48° E 04:11:41 17° SSE
Meteor 1-19 Rocket 4.3 04:02:53 10° N 04:08:44 83° E 04:13:42 15° S
Cosmos 1934 Rocket 4.0 04:05:44 29° SSW 04:09:00 70° W 04:15:10 10° N
Cosmos 1812 4.1 04:09:10 10° NW 04:12:16 24° W 04:12:16 24° W
NOSS 2-2 (E) 3.6 04:11:10 37° SW 04:12:46 72° NW 04:17:38 10° NNE
Cosmos 1461 3.2 04:11:59 34° SSW 04:14:00 79° ESE 04:18:39 10° NE
EO 1 Del DPAF 3.8 04:14:18 14° SSE 04:17:34 60° ENE 04:21:26 10° N
Okean 1-7 Rocket 4.3 04:13:45 10° NNW 04:17:57 37° W 04:19:11 31° SW
SL-08 R/B 4.2 04:17:23 29° SW 04:18:34 32° W 04:22:59 10° NNW
Okean 1 Rocket 4.1 04:17:27 27° WSW 04:18:38 31° WNW 04:22:37 10° NNW
IRS-1D 3.5 04:13:36 10° NNE 04:18:41 76° ESE 04:21:52 23° S
Meteor 1-11 Rocket 4.0 04:20:47 26° SSW 04:24:10 61° WNW 04:30:05 10° N
Cosmos 1844 Rocket 3.4 04:23:18 23° WSW 04:26:18 42° WNW 04:31:42 10° N
Cosmos 1954 Rocket 4.4 04:21:30 10° NNW 04:26:21 42° WSW 04:28:56 24° SSW
OPS 6432 4.4 04:25:59 39° SW 04:27:02 66° NW 04:30:08 10° NNE
USA 234 3.5 04:24:56 10° SSE 04:31:06 45° SW 04:37:20 10° WNW
Okean O Rocket 3.2 04:28:05 10° NE 04:31:56 30° E 04:35:45 10° SSE
Cosmos 614 Rocket 3.9 04:27:18 10° NNW 04:32:30 88° ENE 04:37:36 10° SSE
Meteor 2-15 Rocket 4.4 04:26:34 10° NNW 04:32:41 70° W 04:38:14 13° S
MTI 4.4 04:34:12 10° SSE 04:37:28 60° ENE 04:40:44 10° N
Cosmos 1844 4.3 04:34:05 22° SW 04:37:28 46° WNW 04:43:01 10° NNE
Cosmos 1400 Rocket 2.7 04:35:34 26° SSW 04:37:36 68° W 04:41:32 10° N
SL-16 R/B 2.5 04:33:59 10° S 04:40:13 73° WSW 04:46:27 10° NNW
Cosmos 1025 Rocket 3.5 04:37:48 10° NNW 04:41:51 41° W 04:44:14 22° SSW
Cosmos 1455 Rocket 3.1 04:39:07 17° S 04:42:29 89° ESE 04:46:58 10° N
Cosmos 1605 Rocket 4.3 04:40:47 20° SSW 04:45:00 51° WNW 04:51:07 10° N
Meteor 1-23 Rocket 4.2 04:40:01 10° NNW 04:45:41 68° W 04:51:15 10° S
CENTAUR R/B 3.3 04:38:14 10° NW 04:45:49 50° WSW 04:53:43 10° S
Resurs 1-4 Rocket 2.1 04:43:15 10° N 04:48:34 71° WNW 04:52:51 16° SSW
UNK 3.4 04:42:44 16° WSW 04:49:15 78° NW 04:52:12 10° NE
ARIANE 5 R/B 2.9 04:45:02 10° N 04:49:50 48° WNW 04:53:21 18° SW
ATLAS 5 CENTAUR R/B 2.4 04:44:13 10° NW 04:50:16 89° WSW 04:56:43 10° SSE
Cosmos 2278 Rocket 2.5 04:46:43 19° SW 04:50:39 53° WNW 04:56:13 10° NNE
Cosmos 2297 3.8 04:46:00 16° SSW 04:50:39 80° ESE 04:56:22 10° NNE
MOS 1-B 4.4 04:45:34 10° NNE 04:51:24 81° WNW 04:56:41 13° SSW
Cosmos 1356 4.1 04:51:14 22° SW 04:53:01 39° WNW 04:56:23 10° N
Cosmos 1110 Rocket 4.3 04:48:30 12° S 04:53:22 68° ESE 04:58:38 10° NNE
BREEZE-M DEB (TANK) 2.3 04:52:46 22° SSW 04:54:12 43° SSE 04:57:03 10° ENE
CZ-2C R/B 4.2 04:54:13 10° SSE 04:58:55 67° ENE 05:03:40 10° N
Cosmos 1633 3.9 04:58:53 18° WSW 05:00:35 25° WNW 05:03:39 10° NNW
Meteor 1-5 Rocket 4.3 04:55:48 12° SSW 05:01:15 71° W 05:06:59 10° N
Cosmos 1315 Rocket 3.0 05:02:17 15° SSW 05:05:33 55° WNW 05:09:32 10° N
Thor Agena Rocket 4.2 05:02:08 10° SSE 05:07:13 60° ENE 05:12:15 10° N
COSMOS 2487 3.9 05:04:40 10° NW 05:07:25 21° W 05:09:04 15° SW
Cosmos 1544 Rocket 4.5 05:05:15 15° SW 05:08:17 33° WNW 05:12:16 10° NNW
CZ-4B R/B 3.7 05:03:31 10° NNE 05:09:10 64° ESE 05:14:45 10° S
Cosmos 2082 Rocket 2.4 05:04:23 10° NNW 05:10:09 80° ENE 05:15:51 10° SSE
ADEOS II 4.4 05:06:47 10° NE 05:10:50 22° E 05:14:51 10° SE
CZ-4B R/B 3.9 05:07:09 10° NNE 05:11:37 53° E 05:15:57 10° S
Meteor 1-12 Rocket 4.3 05:09:22 10° S 05:15:16 88° W 05:21:04 10° N
Cosmos 1331 Rocket 4.0 05:10:01 10° SSW 05:15:16 87° WNW 05:20:30 10° NNE
Cosmos 1346 Rocket 3.6 05:11:59 10° N 05:16:00 55° E 05:19:54 10° SSE
Meteor 2-4 Rocket 4.4 05:13:42 10° NNW 05:18:24 31° W 05:23:03 10° SSW
Cosmos 2173 Rocket 4.0 05:15:09 10° SSW 05:21:12 68° W 05:27:21 10° N
Cosmos 1975 2.8 05:18:00 10° S 05:22:00 78° W 05:26:00 10° N
Okean 2 4.5 05:20:58 10° NNW 05:24:25 26° W 05:27:50 10° SSW
Cosmos 1515 3.9 05:25:15 10° N 05:29:05 74° E 05:32:53 10° SSE
Cosmos 1500 3.5 05:25:48 10° S 05:29:39 70° E 05:33:32 10° NNE
Cosmos 1802 Rocket 4.0 05:24:57 10° SSW 05:31:03 65° W 05:37:09 10° N
UNKNOWN OBJECT B 4.1 05:29:20 10° NNW 05:32:50 27° WNW 05:36:18 10° SW
Cosmos 1459 Rocket 4.3 05:29:53 10° SSW 05:36:02 51° WNW 05:42:09 10° N
Cosmos 1066 Rocket 4.5 05:31:53 10° N 05:37:24 73° E 05:42:45 10° SSE
Timation 1 Rocket 4.4 05:37:27 10° SSW 05:43:28 88° WNW 05:49:31 10° NNE
